TimeEDT,TemperatureF,Dew PointF,Humidity,Sea Level PressureIn,VisibilityMPH,Wind Direction,Wind SpeedMPH,Gust SpeedMPH,PrecipitationIn,Events,Conditions,WindDirDegrees,DateUTC
12:14 AM,59.0,55.4,88,30.07,10.0,Calm,Calm,-,N/A,,Overcast,0,2012-10-03 04:14:00
12:47 AM,59.0,55.4,88,30.06,10.0,Calm,Calm,-,N/A,,Overcast,0,2012-10-03 04:47:00
12:52 AM,59.0,55.0,87,30.06,10.0,Calm,Calm,-,N/A,,Overcast,0,2012-10-03 04:52:00
1:04 AM,57.2,55.4,94,30.07,10.0,Calm,Calm,-,N/A,,Overcast,0,2012-10-03 05:04:00
1:26 AM,59.0,55.4,88,30.07,10.0,Calm,Calm,-,N/A,,Overcast,0,2012-10-03 05:26:00
1:52 AM,59.0,55.0,87,30.07,10.0,Calm,Calm,-,N/A,,Overcast,0,2012-10-03 05:52:00
2:05 AM,57.2,55.4,94,30.07,10.0,Calm,Calm,-,N/A,,Overcast,0,2012-10-03 06:05:00
2:52 AM,57.9,55.0,90,30.06,10.0,Calm,Calm,-,N/A,,Overcast,0,2012-10-03 06:52:00
3:52 AM,57.9,55.0,90,30.07,10.0,Calm,Calm,-,N/A,,Overcast,0,2012-10-03 07:52:00
4:52 AM,57.9,55.0,90,30.08,10.0,Calm,Calm,-,N/A,,Overcast,0,2012-10-03 08:52:00
5:52 AM,57.9,55.0,90,30.09,10.0,Calm,Calm,-,N/A,,Overcast,0,2012-10-03 09:52:00
6:52 AM,57.9,55.0,90,30.09,10.0,Calm,Calm,-,N/A,,Overcast,0,2012-10-03 10:52:00
7:52 AM,57.9,55.0,90,30.10,10.0,Calm,Calm,-,N/A,,Overcast,0,2012-10-03 11:52:00
8:18 AM,59.0,55.4,88,30.11,10.0,South,3.5,-,N/A,,Overcast,180,2012-10-03 12:18:00
8:41 AM,59.0,55.4,88,30.11,10.0,Calm,Calm,-,0.00,Rain,Light Rain,0,2012-10-03 12:41:00
8:52 AM,60.1,55.0,83,30.12,10.0,Calm,Calm,-,0.00,,Overcast,0,2012-10-03 12:52:00
9:52 AM,60.1,57.0,90,30.11,8.0,Calm,Calm,-,0.01,Rain,Light Rain,0,2012-10-03 13:52:00
10:52 AM,63.0,59.0,87,30.13,10.0,SSE,4.6,-,0.00,Rain,Light Rain,150,2012-10-03 14:52:00
11:52 AM,66.0,57.9,75,30.11,10.0,Calm,Calm,-,0.00,Rain,Light Rain,0,2012-10-03 15:52:00
12:52 PM,69.1,57.9,68,30.09,10.0,East,4.6,-,0.00,,Overcast,90,2012-10-03 16:52:00
1:39 PM,66.2,59.0,78,30.10,6.0,Calm,Calm,-,0.00,Rain,Light Rain,0,2012-10-03 17:39:00
1:52 PM,64.9,61.0,87,30.10,5.0,Calm,Calm,-,0.00,Rain,Light Rain,0,2012-10-03 17:52:00
1:58 PM,64.4,60.8,88,30.10,1.8,Calm,Calm,-,0.02,Rain,Rain,0,2012-10-03 17:58:00
2:08 PM,64.4,60.8,88,30.10,1.8,East,3.5,-,0.02,Rain,Light Rain,80,2012-10-03 18:08:00
2:12 PM,64.4,60.8,88,30.10,3.0,ENE,4.6,-,0.02,Rain,Light Rain,70,2012-10-03 18:12:00
2:52 PM,64.0,59.0,84,30.10,10.0,East,5.8,-,0.03,,Overcast,80,2012-10-03 18:52:00
3:52 PM,63.0,57.9,84,30.11,10.0,NE,4.6,-,0.00,,Overcast,50,2012-10-03 19:52:00
4:52 PM,62.1,57.9,86,30.12,10.0,ENE,6.9,-,0.01,,Overcast,60,2012-10-03 20:52:00
5:40 PM,62.6,57.2,82,30.12,10.0,ESE,3.5,-,N/A,,Overcast,110,2012-10-03 21:40:00
5:52 PM,61.0,59.0,93,30.13,5.0,Calm,Calm,-,0.00,Rain,Light Rain,0,2012-10-03 21:52:00
6:01 PM,62.6,59.0,88,30.13,5.0,Calm,Calm,-,0.00,,Overcast,0,2012-10-03 22:01:00
6:52 PM,61.0,57.0,87,30.14,10.0,Calm,Calm,-,0.00,,Overcast,0,2012-10-03 22:52:00
7:07 PM,60.8,57.2,88,30.14,10.0,Calm,Calm,-,N/A,,Overcast,0,2012-10-03 23:07:00
7:21 PM,60.8,57.2,88,30.14,6.0,Calm,Calm,-,0.00,Rain,Light Rain,0,2012-10-03 23:21:00
7:43 PM,60.8,57.2,88,30.14,10.0,Calm,Calm,-,0.00,,Overcast,0,2012-10-03 23:43:00
7:52 PM,61.0,57.0,87,30.14,10.0,ENE,3.5,-,0.00,,Overcast,60,2012-10-03 23:52:00
8:11 PM,60.8,57.2,88,30.14,10.0,East,3.5,-,N/A,,Overcast,90,2012-10-04 00:11:00
8:48 PM,60.8,57.2,88,30.15,10.0,Calm,Calm,-,N/A,,Overcast,0,2012-10-04 00:48:00
8:52 PM,60.1,57.0,90,30.16,10.0,Calm,Calm,-,N/A,,Overcast,0,2012-10-04 00:52:00
9:00 PM,60.8,57.2,88,30.16,10.0,Calm,Calm,-,N/A,,Overcast,0,2012-10-04 01:00:00
9:52 PM,61.0,57.9,90,30.16,10.0,Calm,Calm,-,N/A,,Overcast,0,2012-10-04 01:52:00
10:32 PM,60.8,57.2,88,30.16,10.0,Calm,Calm,-,N/A,,Overcast,0,2012-10-04 02:32:00
10:52 PM,60.1,57.0,90,30.17,10.0,Calm,Calm,-,N/A,,Overcast,0,2012-10-04 02:52:00
11:52 PM,60.1,57.0,90,30.17,10.0,Calm,Calm,-,N/A,,Overcast,0,2012-10-04 03:52:00